{"data":{"norad_id":67864,"intl_designator":"2026-034Q","name":"STARLINK-36831","alt_names":[],"object_type":"PAYLOAD","status":"ACTIVE","operator":null,"country":"US","launch_date":"2026-02-20","launch_site_code":"AFETR","launch_vehicle":null,"mission":null,"orbit_class":"UNKNOWN","rcs_meters":null,"size_class":null,"mass_kg":null,"dimensions":null,"purposes":["comms"],"wikipedia_slug":null,"has_3d_model":false,"image_url":null,"decayed_at":null,"tle_current":{"epoch":"2026-05-25T04:10:06.896352Z","epoch_age_seconds":56876,"freshness":"FRESH","line1":"1 67864U 26034Q   26145.17369093  .00032296  00000+0  10972-2 0  9994","line2":"2 67864  53.1593 209.1284 0001506  79.1595 280.9575 15.30219353 15748","mean_motion":15.30219353,"eccentricity":0.0001506,"inclination_deg":53.1593,"raan_deg":209.1284,"arg_perigee_deg":79.1595,"mean_anomaly_deg":280.9575,"bstar":0.0010972,"rev_number":1574,"period_min":94.104155536713,"perigee_km":474.12517933935,"apogee_km":476.18939157813,"semimajor_km":6853.2942854587,"source":"CELESTRAK","updated_at":"2026-05-25T13:38:21.727796Z"}}}